Fran Budimir

Ojeador - Imotski
3 Dic 2028
Domingo
Continuar

Personalidad

Adaptabilidad (3) Ambición (4) Controversia (12) Lealtad (18) Presión (1) Profesionalismo (3) Deportividad (10) Temperamento (1)

Perfil

Estilo de dirección Democrático
Licencia Nacional B
Determinación 7
Gestión de personas 2
Motivación 8
Disciplina 2
Satisfacción laboral
100%
Fatiga
0%
Cargo Ojeador
Salario 7.1K p/s
Contrato 14.03.2029

Rendimiento

Comportamiento Bueno
Efectividad del entrenamiento
28%
Desarrollo de jugadores
25%
Prevención de lesiones
25%
Implementación táctica
35%

Eventos recientes

Asistió a una reunión de captación ahora
Evaluó a un jugador ahora
Evaluó a un jugador ahora
Evaluó a un jugador 7d atrás
Evaluó a un jugador 7d atrás
Evaluó a un jugador 7d atrás
Evaluó a un jugador 7d atrás
Evaluó a un jugador 7d atrás

Actualmente siguiendo

95
Jugador Club Estado Habilidad Confianza Observado Última observación Último voto
Gianluca Pugliese Güemes Activo 109 / 125 40% 2 02.12.2028 -
Lautaro Disanto Defensores Unidos Activo 103 / 124 40% 3 02.12.2028 -
Elías Ayala Madryn Activo 118 / 110 40% 3 01.12.2028 -
Franco Ayunta Temperley Activo 109 / 104 40% 2 01.12.2028 -
Ismail Mukhtar El-Kanemi Warriors Activo 80 / 73 40% 2 29.11.2028 -
Maximiliano Rueda Patronato Activo 101 / 106 40% 1 29.11.2028 -
Marco Miori Alvarado Activo 120 / 104 40% 2 28.11.2028 -
Franco Bustamante Almagro Activo 111 / 90 40% 1 28.11.2028 -
Adeshina Gata Kwara United Activo 86 / 83 40% 1 26.11.2028 -
Antonio Napolitano Agropecuario Argentino Activo 99 / 128 40% 6 25.11.2028 -
Nazareno Petrecca Nueva Chicago Activo 94 / 117 40% 1 25.11.2028 -
Johan Campaña Patriotas Activo 113 / 101 40% 4 23.11.2028 -
Kabiru Abdullahi Barau Activo 80 / 83 40% 1 22.11.2028 -
Matteo Trombini Arsenal Activo 109 / 120 40% 1 22.11.2028 -
Matías Sosa Arsenal Activo 106 / 104 40% 1 21.11.2028 -
Santino Sciacqua Colón Activo 111 / 118 40% 1 21.11.2028 -
Damián Adín San Miguel Activo 124 / 96 40% 1 20.11.2028 -
Sebastián de Marco Fenix Activo 111 / 120 40% 2 19.11.2028 -
Santiago Gutiérrez Alvarado Activo 120 / 104 40% 3 19.11.2028 -
Emiliano Purita All Boys Activo 112 / 92 40% 3 17.11.2028 -
Dylan Cabral Arsenal Activo 111 / 124 40% 3 16.11.2028 -
Diego Gaitán Maipú Activo 127 / 126 40% 1 16.11.2028 -
Juan David Rueda Alianza Petrolera Activo 117 / 105 40% 3 15.11.2028 -
Facundo Taborda Racing Activo 96 / 103 40% 1 15.11.2028 -
Renzo Reynaga Patronato Activo 94 / 117 40% 2 13.11.2028 -
Santiago Moyano Central Córdoba SdE Activo 111 / 109 40% 3 10.11.2028 -
Musa Afeez Kwara United Activo 94 / 100 40% 1 10.11.2028 -
David Eke Enyimba Activo 73 / 91 40% 2 09.11.2028 -
Jhon Solís Fortaleza CEIF Activo 98 / 103 40% 2 09.11.2028 -
Naziru Auwalu Wikki Tourists Activo 91 / 102 40% 2 06.11.2028 -
Santiago Camacho Estudiantes Activo 89 / 107 40% 2 06.11.2028 -
Miguel Ceccotti Güemes Activo 125 / 95 40% 2 05.11.2028 -
Luis Sandoval Independiente Medellin Activo 120 / 121 40% 1 04.11.2028 -
Jerónimo Porto Lapegüe San Telmo Activo 123 / 109 40% 2 02.11.2028 -
Siro Rosané Estudiantes Activo 118 / 133 40% 1 02.11.2028 -
Facundo Villarreal Los Andes Activo 100 / 103 40% 2 30.10.2028 -
Francisco Funes Los Andes Activo 95 / 95 40% 1 29.10.2028 -
Gustavo Viera Cerro Largo Activo 117 / 90 40% 1 26.10.2028 -
Santiago Kubiszyn Morón Activo 102 / 99 40% 1 25.10.2028 -
Agustín Pereira Albion Activo 125 / 130 40% 1 25.10.2028 -
Agustín Ojeda Chaco For Ever Activo 98 / 119 40% 1 21.10.2028 -
Pedro Sanz Central Norte Activo 99 / 119 40% 2 20.10.2028 -
Mafeng Pam Plateau United Activo 76 / 100 40% 1 20.10.2028 -
Yeferson Rodallega Envigado Activo 132 / 99 40% 2 18.10.2028 -
Alan Olinick Racing Activo 100 / 129 40% 2 17.10.2028 -
Camilo Machado Madryn Activo 115 / 101 40% 1 17.10.2028 -
Gideon Manaseh Ikorodu City Activo 84 / 92 40% 1 15.10.2028 -
David Veliz Güemes Activo 104 / 101 40% 1 14.10.2028 -
Yeferson Contreras Estudiantes de Caracas Activo 101 / 97 40% 1 14.10.2028 -
Álvaro Meléndez Real Cartagena Activo 100 / 99 40% 2 12.10.2028 -
Gerónimo Tomasetti Temperley Activo 105 / 91 40% 1 12.10.2028 -
Estanislao Jara Madryn Activo 97 / 107 40% 2 10.10.2028 -
Alao Dabani Nasarawa United Activo 92 / 97 40% 1 10.10.2028 -
José Barreto Quilmes Activo 123 / 98 40% 1 07.10.2028 -
Samuel Bello Patriotas Activo 86 / 111 40% 1 05.10.2028 -
Shuaibu Ibrahim Wikki Tourists Activo 102 / 105 40% 1 04.10.2028 -
Lautaro Díaz San Martín Activo 97 / 99 40% 1 03.10.2028 -
Tobías Macies Almagro Activo 91 / 111 40% 1 03.10.2028 -
Marcos Enrique Tristán Suárez Activo 111 / 131 40% 1 02.10.2028 -
Dehinde Ibrahim Bayelsa United Activo 97 / 85 40% 1 02.10.2028 -
Franco Malagueño Colegiales Activo 105 / 117 40% 1 21.08.2028 -
Paolo Dorini Estudiantes de Merida Activo 86 / 94 40% 1 20.08.2028 -
Seth Mayi Warri Wolves Activo 87 / 99 40% 1 18.08.2028 -
Enzo Silcan Almagro Activo 97 / 129 40% 1 18.08.2028 -
Ariel Castellano Alvarado Activo 98 / 111 40% 1 17.08.2028 -
Salman Abubakar Mosta Activo 100 / 87 40% 1 16.08.2028 -
Bruno Pérez Madryn Activo 120 / 109 40% 1 13.08.2028 -
Richmond Lamptey Ashanti Gold Activo 115 / 90 40% 2 10.08.2028 -
Fernando Duré Estudiantes Activo 95 / 111 40% 1 07.08.2028 -
Franco Zicarelli Colegiales Activo 107 / 92 40% 1 07.08.2028 -
Will Hondermarck Great Olympics Activo 85 / 111 40% 1 31.07.2028 -
Kehinde Lawal Bayelsa United Activo 84 / 94 40% 1 24.07.2028 -
Manuele Malotti Livorno Activo 93 / 116 40% 1 24.07.2028 -
Yevhen Smyrnyi Kudrivka Activo 96 / 111 40% 2 04.07.2028 -
Jaiminho Leiria Activo 99 / 122 40% 1 04.07.2028 -
Daniel Valdelamar Yenisey Activo 108 / 97 40% 1 27.06.2028 -
Frazer Blake-Tracy Newport County Activo 89 / 98 40% 1 22.06.2028 -
Jhon Murillo Jaguares Activo 124 / 109 40% 1 22.06.2028 -
Thomas Agyepong Berekum Chelsea Activo 103 / 80 40% 1 21.06.2028 -
Yegor Noskov SKA Khabarovsk Activo 113 / 111 40% 1 21.06.2028 -
Ishmael Addo Heart of Lions Activo 78 / 98 40% 1 19.06.2028 -
Luka Bilandžić Rudes Activo 60 / 76 51% 1 12.06.2028 -
Saber Hraiech Trapani Activo 95 / 99 40% 1 07.06.2028 -
Antonio Salado Ospitaletto Activo 100 / 107 40% 1 07.06.2028 -
Ilja Zhigulev Chernomorets Activo 97 / 96 40% 1 04.06.2028 -
Juan Pablo Ramírez Chernomorets Activo 93 / 99 40% 1 02.06.2028 -
Abeiku Partey Liberty Professionals Activo 95 / 97 40% 1 02.06.2028 -
Robert Murić Floriana Activo 102 / 103 40% 1 02.06.2028 -
Kristijan Simunovic Cibalia Activo 73 / 73 51% 1 24.01.2028 -
Sime Srna Cibalia Activo 74 / 100 51% 1 01.01.2028 -
Bartol Kunert Segesta Activo 83 / 89 51% 1 01.06.2027 -
Renato Solís Sporting Cristal Activo 121 / 142 40% 1 04.08.2026 -
John Amah Plateau United Activo 95 / 106 40% 1 04.08.2026 -
Thomas Carrique Andorra Activo 111 / 104 40% 1 01.08.2026 -
Rodrigo Saracho San Marcos de Arica Activo 130 / 124 40% 1 01.08.2026 -